Home   Weather   Fushun   Past weeks

Flag for China Past Weather in Fushun, Liaoning, China — Yesterday and Last 2 Weeks

25 °F


Feels Like: 25 °F
Forecast: 24 / 41 °F
Wind: 1 mph from South

Location: Shenyang / Taoxian

Current Time: Oct 29, 2016 at 3:44:52 AM

Latest Report: Oct 29, 2016 at 3:00 AM

Visibility: 10 mi

Pressure: 30.42 "Hg

Humidity: 93%

Dew Point: 23 °F

Location of FushunLocation

Past Weather in Fushun — Graph


Fushun Temperature Yesterday

Maximum temperature yesterday: 48 °F (at 1:00 PM)
Minimum temperature yesterday: 30 °F (at 11:00 PM)
Average temperature yesterday: 42 °F

High & Low Weather Summary for the Past Weeks

High77 °F (Oct 15, 12:30 PM)94% (Oct 16, 12:30 AM)30.45 "Hg (Oct 16, 12:30 AM)
Low25 °F (Oct 27, 3:30 AM)16% (Oct 27, 1:30 PM)29.83 "Hg (Oct 25, 2:30 AM)
Average49 °F61%30.16 "Hg
* Reported Oct 14 2:00 AM — Oct 29 2:30 AM, Fushun, Weather by CustomWeather, © 2016

Note: Actual official high and low records may vary slightly from our data, if they occured in-between our weather recording intervals... More about our weather records


Fushun Weather History for the Previous 24 Hours

Scroll right to see more
Time TempWeatherWind HumidityBarometerVisibility
2:30 AM
Sat, Oct 29
27 °FClear.1 mph86%30.45 "Hg10 mi
2:00 AM27 °FClear.1 mph86%30.42 "Hg10 mi
1:30 AM27 °FClear.1 mph86%30.42 "Hg10 mi
1:00 AM27 °FClear.1 mph86%30.42 "Hg10 mi
12:30 AM28 °FClear.3 mph80%30.42 "Hg10 mi
12:00 AM30 °FClear.1 mph69%30.42 "Hg10 mi
11:30 PM
Fri, Oct 28
30 °FClear.No wind69%30.42 "Hg10 mi
11:00 PM30 °FClear.No wind64%30.42 "Hg10 mi
10:30 PM34 °FClear.1 mph51%30.42 "Hg10 mi
10:00 PM36 °FClear.3 mph48%30.42 "Hg10 mi
9:30 PM34 °FClear.6 mph51%30.39 "Hg10 mi
9:00 PM36 °FClear.6 mph48%30.39 "Hg10 mi
8:30 PM37 °FClear.8 mph41%30.39 "Hg10 mi
8:00 PM39 °FClear.6 mph36%30.36 "Hg10 mi
7:30 PM41 °FPassing clouds.10 mph31%30.36 "HgN/A
7:00 PM41 °FClear.8 mph26%30.36 "Hg10 mi
6:30 PM43 °FClear.15 mph24%30.33 "Hg10 mi
6:00 PM43 °FClear.8 mph29%30.33 "Hg10 mi
5:30 PM43 °FClear.8 mph31%30.30 "Hg10 mi
5:00 PM45 °FPassing clouds.6 mph27%30.27 "HgN/A
4:30 PM45 °FPassing clouds.3 mph31%30.27 "HgN/A
4:00 PM46 °FPassing clouds.8 mph27%30.27 "HgN/A
3:30 PM48 °FPassing clouds.8 mph27%30.27 "HgN/A
3:00 PM48 °FPassing clouds.10 mph27%30.27 "HgN/A
2:30 PM48 °FPassing clouds.6 mph29%30.27 "HgN/A
2:00 PM48 °FSunny.10 mph32%30.27 "Hg10 mi
1:30 PM48 °FPassing clouds.8 mph29%30.27 "HgN/A
1:00 PM48 °FPassing clouds.10 mph32%30.27 "HgN/A
12:30 PM46 °FPassing clouds.10 mph34%30.27 "HgN/A
12:00 PM46 °FPassing clouds.8 mph43%30.27 "HgN/A
11:30 AM46 °FPassing clouds.8 mph43%30.27 "HgN/A
11:00 AM45 °FPassing clouds.8 mph46%30.27 "HgN/A
10:30 AM45 °FPassing clouds.8 mph49%30.27 "HgN/A
10:00 AM45 °FPassing clouds.8 mph49%30.27 "HgN/A
9:30 AM43 °FSunny.8 mph49%30.27 "Hg10 mi
9:00 AM41 °FSunny.10 mph61%30.27 "Hg10 mi
8:30 AM41 °FScattered clouds.13 mph61%30.27 "HgN/A
8:00 AM41 °FScattered clouds.10 mph70%30.27 "HgN/A
7:30 AM41 °FFog.3 mph87%30.27 "Hg2 mi
7:00 AM41 °FFog.3 mph93%30.24 "Hg1 mi
6:30 AM41 °FFog.1 mph93%30.21 "Hg2 mi
6:00 AM41 °FFog.3 mph93%30.21 "Hg2 mi
5:30 AM41 °FFog.1 mph93%30.21 "Hg3 mi
5:00 AM41 °FFog.3 mph93%30.21 "Hg3 mi
4:30 AM41 °FFog.3 mph93%30.21 "Hg2 mi
4:00 AM41 °FLight rain. Fog.3 mph93%30.21 "Hg2 mi
3:30 AM41 °FLight rain. Fog.3 mph93%30.24 "Hg2 mi
3:00 AM41 °FLight rain. Fog.3 mph93%30.24 "Hg2 mi
Weather by CustomWeather, © 2016

See weather overviewHow to use our weather pages